Temperature
13 13 14 14 12 11 12 13 13 14 14 15 15 16 15 15 15 16 15 16 16 16 16 16 16 16 16 17 17 17 17 17 16 16 16 16 16 16 16 16 16 16 15 15 15 15 15 15 15
13 13 14 13 11 11 12 12 13 14 14 15 15 15 14 14 15 15 15 15 15 16 16 16 16 16 16 16 16 16 16 16 16 16 16 16 16 16 16 16 16 15 15 15 15 15 15 15 15
12 13 13 10 10 11 12 12 13 13 14 14 14 14 14 14 14 15 15 15 15 15 16 16 16 16 16 16 16 16 16 16 16 16 16 16 16 16 15 15 16 15 15 15 15 15 15 15 15
12 12 12 10 11 11 12 13 12 12 14 14 13 13 13 14 14 15 15 15 15 15 15 15 15 16 16 16 16 16 16 16 16 16 16 16 15 15 15 15 15 15 15 15 15 15 15 15 15
12 12 10 10 11 11 12 13 13 12 12 13 13 12 13 14 14 14 14 15 15 15 15 15 15 15 16 16 16 16 16 15 15 15 15 15 15 15 15 15 15 15 15 15 15 15 15 15 15
11 9 9 10 11 12 12 13 13 12 12 12 12 12 12 14 14 14 14 14 15 15 15 15 15 15 15 15 15 15 15 15 15 15 15 15 15 15 15 15 15 15 15 15 15 15 15 15 14
10 8 9 10 10 11 12 13 12 11 11 12 13 12 12 13 14 14 14 14 14 14 14 15 15 15 15 15 15 15 15 15 15 15 15 15 15 15 15 15 15 15 15 15 15 15 14 14 14
11 8 9 9 10 11 12 12 12 12 12 13 13 12 12 13 13 14 14 14 14 14 14 14 14 14 15 15 15 15 15 15 15 15 15 15 15 15 15 15 15 15 15 14 14 14 14 14 14
10 8 9 9 10 11 12 12 12 12 12 12 13 13 13 13 13 13 14 14 14 14 14 14 14 14 14 14 15 15 15 15 15 15 15 15 15 15 15 15 14 14 14 14 14 14 14 14 14
10 8 9 10 10 11 11 11 12 12 11 11 12 13 13 13 13 13 13 14 14 13 14 14 14 14 14 14 14 14 14 14 14 14 14 14 14 14 14 14 14 14 14 14 14 14 14 14 14
9 9 10 10 11 11 11 11 12 11 11 12 12 13 13 13 13 13 13 13 13 13 13 13 14 14 14 14 14 14 14 14 14 14 14 14 14 14 14 14 14 14 14 14 14 14 13 13 13
9 9 10 10 11 11 11 11 11 11 12 13 13 14 13 13 13 13 13 13 13 13 13 13 13 14 14 14 14 14 14 14 14 14 14 14 14 14 14 14 14 13 13 13 13 13 13 13 13
8 9 9 10 11 11 11 10 11 11 12 13 13 13 13 13 13 13 13 13 13 13 13 13 13 13 13 13 14 13 13 14 14 14 13 13 13 13 13 13 13 13 13 13 13 13 13 13 13
8 9 9 10 10 11 10 10 10 11 12 12 12 12 12 12 13 13 13 13 13 13 13 13 13 13 13 13 13 13 13 13 13 13 13 13 13 13 13 13 13 13 13 12 12 12 13 12 12
9 8 9 9 10 10 10 10 9 10 11 11 11 11 12 12 12 13 12 12 12 13 13 13 13 13 13 13 13 13 13 13 13 13 13 13 12 12 12 12 12 12 12 12 12 12 12 12 12
9 8 8 9 9 10 10 10 10 10 11 10 11 11 11 11 12 12 12 12 12 12 12 12 12 12 13 13 13 12 12 12 12 12 12 12 12 12 12 12 12 12 12 12 12 12 12 12 12
8 8 8 9 9 9 10 9 9 10 10 10 10 11 11 11 11 12 12 12 12 12 12 12 12 12 12 12 12 12 12 12 12 12 12 12 12 11 11 11 11 11 11 11 11 11 11 11 11
8 8 8 9 9 9 9 9 9 9 10 10 10 10 11 11 11 12 12 12 11 12 12 12 12 12 12 12 12 12 12 12 11 11 11 11 11 11 11 11 11 11 11 11 11 11 11 11 11
8 8 8 8 9 9 9 9 9 9 9 9 9 10 10 11 11 11 11 11 11 11 11 11 11 11 11 11 11 11 11 11 11 11 11 11 11 11 11 11 11 10 10 10 10 10 10 10 10
8 8 8 8 8 9 8 8 8 8 9 9 9 10 10 11 11 11 11 11 11 11 11 11 11 11 11 11 11 11 11 11 11 10 10 10 10 10 10 10 10 10 10 10 10 10 10 10 10
8 8 8 8 8 8 9 9 9 9 9 9 10 10 10 11 11 11 11 11 11 11 11 11 11 11 11 10 10 10 10 10 10 10 10 10 10 10 10 10 10 10 10 10 10 9 9 9 9
8 8 8 8 7 7 8 8 8 8 8 8 9 10 10 11 11 11 11 11 11 11 11 11 10 10 10 10 10 10 10 10 10 10 10 10 9 9 9 9 9 9 9 9 9 9 9 9 9
7 7 7 7 7 7 6 7 7 7 8 8 8 9 10 11 11 11 11 11 11 11 10 10 10 10 10 10 9 9 9 9 9 9 9 9 9 9 9 9 9 9 9 9 8 8 8 8 8
7 7 7 5 6 7 7 7 7 6 8 8 8 9 10 11 11 11 11 11 10 10 10 10 10 10 10 9 9 9 9 9 9 9 9 9 9 9 8 8 8 8 8 8 8 8 8 8 8
7 6 6 7 6 7 6 6 6 7 7 8 8 9 10 10 10 11 11 11 10 10 10 10 10 10 9 9 9 8 8 8 8 8 8 8 8 8 8 8 8 8 8 7 7 7 7 7 7
7 7 6 8 7 6 6 6 6 7 7 8 8 9 10 10 10 10 10 10 10 10 10 10 10 9 9 9 8 8 8 8 8 8 8 8 8 8 7 7 7 7 7 7 7 7 7 7 7
7 5 6 5 5 5 6 5 6 7 7 7 8 9 9 10 10 10 10 10 10 10 10 9 9 9 9 8 8 8 8 8 7 7 7 7 7 7 7 7 7 7 7 7 7 7 7 6 6
6 5 4 5 7 7 7 6 6 7 7 7 7 8 9 9 9 10 10 10 9 9 9 9 9 9 8 8 8 8 8 7 7 7 7 7 7 7 6 6 6 6 6 6 6 6 6 6 6
6 6 5 4 5 6 7 7 6 6 7 6 7 8 9 9 9 9 9 9 9 9 9 9 9 8 8 8 7 7 7 7 7 7 7 7 7 6 6 6 6 6 6 6 6 6 6 5 5
6 6 5 5 5 4 4 5 7 6 6 7 7 8 9 9 9 9 9 9 9 8 8 8 8 8 8 8 7 7 7 7 7 7 7 7 6 6 6 6 6 6 5 5 5 5 5 5 5
Wind_Speed
6 5 2 3 4 2 4 4 3 3 2 1 1 3 6 4 4 3 0 3 5 5 6 8 10 10 10 10 10 10 10 10 9 9 9 8 8 7 7 6 6 6 6 6 7 7 7 6 5
2 2 4 3 4 4 5 4 4 4 4 2 2 3 3 1 1 2 1 2 5 6 7 8 10 11 11 10 10 10 10 9 8 8 8 7 7 7 6 6 6 5 6 5 5 6 5 5 4
1 2 3 3 4 7 5 4 5 1 1 2 3 3 2 2 0 1 1 3 5 6 7 8 10 11 10 10 9 9 9 8 8 7 7 7 6 6 6 5 5 5 4 4 4 4 4 4 3
2 3 3 2 6 6 5 3 4 3 1 2 3 3 1 2 1 1 3 4 6 5 6 8 9 10 10 9 9 8 8 8 7 7 6 6 5 5 5 5 4 4 3 3 3 3 2 2 2
3 3 3 2 5 4 3 2 3 2 2 1 3 3 0 3 1 3 4 5 5 4 6 8 8 9 9 9 8 8 8 7 7 6 6 5 5 5 4 4 4 3 3 2 2 1 1 1 1
3 3 3 4 5 3 2 1 3 2 2 1 3 4 1 2 2 3 4 5 4 5 6 7 8 8 9 9 8 7 7 7 6 6 6 5 5 5 4 4 3 2 2 2 1 1 1 1 1
3 3 4 5 4 2 2 1 4 3 2 2 3 4 2 0 1 3 4 5 5 5 6 6 7 7 8 8 7 7 7 6 6 5 5 5 5 5 5 4 3 3 2 1 1 1 1 2 2
3 4 3 4 5 3 2 1 2 3 2 1 2 5 4 3 3 4 5 6 6 5 5 5 6 7 6 6 7 7 7 7 6 6 5 5 5 4 4 3 3 3 3 2 2 2 2 2 2
3 3 4 5 6 4 2 2 1 1 3 1 0 1 3 5 5 6 5 5 5 5 3 4 5 6 6 6 7 7 7 6 6 6 5 4 4 4 3 3 3 3 3 2 2 3 2 2 3
3 3 4 3 3 3 2 2 2 2 2 1 1 2 4 5 6 6 5 5 4 3 2 3 4 4 5 5 6 6 6 6 6 6 5 4 4 3 3 3 3 3 3 3 3 3 4 4 3
2 3 2 1 1 2 2 1 2 5 3 5 6 6 5 5 5 5 4 3 3 2 3 3 3 4 5 4 5 5 6 6 6 6 5 5 4 4 4 3 3 3 3 3 4 4 4 4 3
2 1 1 1 1 1 1 2 2 2 4 3 5 7 6 6 5 4 4 3 3 3 3 3 3 4 4 5 4 4 4 5 5 5 5 4 4 4 3 3 3 3 3 3 3 3 4 4 4
2 0 2 2 2 2 2 1 2 1 2 2 5 6 6 6 4 3 3 3 3 3 3 3 3 3 4 4 4 4 4 4 4 4 4 4 3 2 3 3 3 3 4 3 3 3 3 3 4
1 1 2 4 3 2 3 2 2 1 1 5 6 6 5 5 4 4 3 3 3 2 2 2 3 3 4 4 3 3 4 4 5 5 4 4 3 3 2 2 3 3 3 3 3 3 2 3 3
1 3 5 5 3 2 3 4 1 1 3 4 4 4 4 3 3 4 3 3 3 2 2 2 3 3 4 4 3 3 4 4 4 4 5 5 4 3 3 2 2 3 3 3 3 3 2 2 3
3 4 3 5 3 2 3 1 2 1 4 3 3 3 3 2 2 2 2 2 2 3 2 2 3 3 3 3 3 3 4 4 4 5 5 6 5 4 3 2 2 4 4 3 1 1 2 2 3
6 3 1 3 4 2 3 2 2 1 3 3 3 3 3 2 1 1 2 2 3 3 2 2 2 3 3 3 3 3 4 4 4 5 5 6 6 5 4 2 3 4 3 2 2 1 1 2 3
0 1 1 2 4 3 2 1 2 0 2 3 2 2 3 3 3 2 2 2 2 2 2 3 3 3 3 2 3 3 3 3 4 4 5 5 6 6 5 3 4 4 2 2 2 2 2 2 3
2 2 1 2 3 2 1 2 3 1 1 2 2 3 3 3 2 2 2 2 2 2 2 2 2 2 3 2 2 2 2 2 2 3 5 6 6 6 5 4 4 4 2 3 3 2 2 2 2
3 3 2 3 4 2 1 3 3 2 2 3 4 4 4 3 2 2 2 2 2 1 1 1 1 2 2 1 1 0 0 1 1 2 4 5 5 5 4 4 3 3 3 3 3 3 2 2 2
4 2 1 1 3 5 3 5 3 2 1 1 2 2 3 4 5 4 3 3 2 2 2 2 1 1 2 2 2 2 2 2 2 2 2 4 5 4 4 3 3 3 2 3 3 3 2 2 2
2 2 1 2 3 3 3 2 5 3 4 3 3 3 3 3 3 3 3 3 3 3 2 1 1 2 1 2 2 1 0 1 1 1 2 3 4 4 4 3 3 2 2 2 3 2 2 2 2
1 2 3 3 3 2 3 1 7 4 3 5 4 4 5 4 4 4 4 4 3 2 2 2 2 1 1 1 1 1 0 1 1 2 2 3 3 4 4 3 2 2 2 2 2 3 2 2 2
1 4 5 5 4 1 1 2 6 4 5 4 3 2 3 3 3 3 2 2 2 1 2 2 2 1 1 1 0 1 2 2 2 2 2 2 2 2 3 3 2 2 2 2 2 2 2 2 2
5 5 5 5 4 4 1 2 8 6 5 4 4 3 2 2 2 2 1 2 2 2 2 2 2 1 1 1 1 2 2 2 3 3 3 3 2 2 3 3 2 2 2 2 2 2 2 2 2
2 4 4 3 4 5 3 5 7 4 4 3 3 2 1 1 1 2 2 2 2 2 2 2 2 3 2 2 3 2 2 2 3 3 3 3 2 3 3 3 3 3 3 3 2 1 2 2 2
2 2 2 4 1 2 5 7 8 2 3 2 2 2 1 1 2 2 2 1 2 2 2 3 4 4 3 3 3 3 3 3 4 4 3 3 3 3 3 3 3 3 3 3 2 2 2 2 2
3 5 4 3 1 3 6 5 4 4 3 2 2 2 3 2 2 2 2 2 2 3 3 2 3 4 4 3 3 3 4 4 4 3 4 4 4 3 3 3 3 3 3 3 2 2 2 2 3
2 3 4 3 3 3 4 7 4 4 3 2 2 2 2 2 3 2 2 2 2 2 2 2 3 4 4 4 4 4 4 4 4 4 4 4 4 4 4 4 4 4 4 3 3 3 3 3 4
2 4 5 3 2 3 3 7 4 3 3 2 2 2 3 3 2 2 2 2 2 3 3 3 3 4 5 4 4 4 4 4 4 5 5 4 5 5 5 4 4 4 4 4 4 4 4 4 4
Wind_Direction
335 354 48 60 74 85 220 234 211 177 181 184 130 132 143 149 161 179 85 116 123 138 145 147 144 136 132 126 125 124 122 120 120 117 115 114 111 110 107 103 98 96 90 89 88 85 84 82 84
342 18 55 75 133 189 236 220 202 198 183 135 63 91 99 99 32 88 78 98 120 128 129 138 141 136 132 127 126 127 125 123 121 119 115 114 113 112 109 104 96 93 89 85 81 83 83 80 75
358 43 97 110 163 190 206 203 192 201 153 117 81 63 115 133 7 128 92 115 108 110 120 129 135 135 133 130 127 128 126 124 122 120 117 114 111 112 110 105 98 93 92 87 84 88 82 74 68
76 58 74 135 203 210 199 199 184 141 52 54 110 93 39 0 299 207 114 108 110 107 115 127 129 132 131 129 126 126 127 124 122 120 118 117 113 110 107 104 101 96 97 95 92 93 87 70 59
68 101 126 195 212 223 226 208 162 142 154 100 116 122 73 341 9 111 116 107 112 116 112 125 121 127 125 121 120 119 124 122 119 115 112 110 106 102 99 98 100 98 96 94 96 90 72 51 35
86 101 144 196 206 226 240 195 130 100 121 119 116 122 173 7 61 95 110 103 101 118 107 115 114 114 121 118 114 111 110 117 115 111 106 102 99 98 94 92 93 94 92 80 69 58 33 13 353
130 129 167 173 181 207 211 137 130 127 142 189 152 128 173 345 77 82 95 99 82 94 97 90 102 101 109 110 109 106 100 99 101 102 100 97 91 89 86 81 76 69 55 47 30 2 346 340 340
137 122 147 178 171 204 189 122 134 144 171 154 134 150 186 192 119 84 84 89 80 79 87 78 83 85 84 95 98 94 91 86 84 83 82 85 85 82 78 70 62 54 41 34 20 2 351 345 349
103 105 182 194 180 191 174 119 43 63 113 59 26 179 176 132 112 96 90 84 78 70 81 85 78 75 75 80 82 82 82 77 72 69 68 69 63 66 65 57 54 47 36 26 16 3 353 351 350
111 161 204 209 191 176 169 152 154 95 80 88 68 74 109 120 121 115 111 114 98 83 65 85 82 77 72 74 71 67 68 68 64 60 58 57 55 56 57 52 43 31 24 14 4 359 359 355 347
133 176 216 277 243 158 149 144 144 137 193 209 183 163 135 127 121 118 111 119 115 96 64 57 74 72 74 72 69 63 59 56 58 54 48 52 51 43 39 35 21 13 13 6 352 358 356 351 341
105 336 278 284 296 106 157 148 113 191 232 225 175 156 143 144 144 140 132 113 93 83 55 45 69 76 75 76 73 66 60 52 48 49 50 55 50 40 30 27 15 10 2 354 351 345 339 336 327
82 3 1 8 21 63 87 99 143 303 317 88 123 136 147 148 143 121 113 100 97 91 54 34 59 67 68 72 69 64 55 54 47 47 48 54 55 38 28 20 18 9 4 358 347 340 334 327 319
117 67 15 358 9 17 80 25 82 310 75 101 121 142 148 149 146 123 108 103 104 98 63 49 70 68 67 67 64 61 52 55 53 44 41 49 54 46 31 18 14 5 356 347 341 333 325 316 316
84 48 22 1 359 8 70 26 331 279 103 104 114 126 131 137 134 136 144 142 128 113 83 96 100 78 71 65 57 59 50 55 51 37 36 44 47 46 44 24 4 349 348 350 350 347 349 336 332
48 56 33 337 6 3 97 208 317 73 119 132 137 137 136 135 136 140 148 142 129 109 84 83 95 87 71 66 57 54 52 54 46 39 34 32 34 39 45 33 1 352 356 358 339 342 340 330 323
35 60 18 333 9 30 97 203 291 19 136 161 165 164 164 161 164 161 147 140 123 110 100 77 77 80 70 63 64 56 50 52 45 41 35 27 25 28 36 31 3 360 3 359 336 342 327 310 314
201 51 23 342 344 44 69 268 294 330 147 174 180 180 190 194 211 177 153 140 116 106 98 86 69 58 55 57 54 46 39 38 35 34 28 27 27 26 29 30 12 10 3 352 343 324 326 307 311
129 97 35 334 338 42 56 291 284 287 150 182 204 202 212 227 224 168 159 144 122 112 103 95 80 58 57 48 48 36 17 359 6 23 23 24 24 25 28 21 15 13 1 342 335 331 328 331 339
81 77 31 357 7 40 15 305 285 253 218 215 213 213 213 218 202 180 166 150 154 160 135 111 100 77 66 59 70 94 52 346 340 5 18 19 19 19 26 26 13 8 355 351 350 353 338 335 5
42 101 130 337 358 26 10 334 320 304 294 254 236 221 215 213 216 210 194 197 188 196 193 178 143 99 80 72 59 36 39 17 4 359 358 359 6 12 21 20 13 10 4 351 344 342 343 326 329
41 343 91 68 56 346 28 304 296 308 313 286 262 250 241 236 221 211 204 205 210 216 197 176 140 109 97 104 96 88 90 275 282 299 315 335 354 2 8 11 9 7 359 347 331 339 318 314 312
127 21 63 71 94 26 22 124 288 325 291 277 267 249 247 237 222 218 212 208 207 194 181 187 148 128 117 114 133 135 259 255 288 314 325 334 341 349 351 353 356 351 343 329 328 331 329 301 285
98 52 50 48 62 353 278 171 279 256 242 271 272 259 251 246 236 234 227 194 200 181 172 179 159 165 132 136 164 203 238 264 296 311 310 313 317 323 332 339 338 331 324 314 312 313 316 307 295
50 69 31 8 5 262 298 220 253 259 253 248 258 265 259 246 237 249 239 228 234 225 220 213 183 211 193 201 238 241 244 247 262 276 277 287 298 301 308 319 313 309 304 302 305 309 308 302 297
38 106 141 196 242 285 311 243 257 274 293 284 275 271 300 305 265 258 252 238 242 247 239 230 236 243 226 226 251 252 248 243 256 259 258 260 261 269 281 289 294 297 301 305 309 302 297 297 287
91 91 141 132 163 290 282 288 303 310 331 342 5 27 357 318 298 287 294 274 256 260 249 233 234 249 245 234 239 249 247 243 254 261 253 255 257 267 268 275 286 293 295 296 299 293 291 289 279
101 138 93 108 141 286 300 285 266 291 295 310 323 319 315 331 319 302 299 290 278 261 258 256 240 243 246 240 235 247 246 247 250 252 254 252 257 262 267 270 276 284 288 290 290 287 286 287 287
94 97 100 107 149 175 282 280 239 239 251 250 280 298 303 310 302 291 287 286 289 296 286 268 264 260 260 252 245 248 251 248 250 252 255 252 254 257 257 259 265 271 275 279 276 276 280 278 285
185 169 146 153 229 183 213 272 287 248 261 247 276 312 324 330 316 302 295 306 312 303 296 283 272 264 259 251 245 249 253 250 250 254 256 253 253 253 251 254 258 263 264 263 260 268 271 267 271
Height
1499 1500 1502 1505 1509 1518 1518 1513 1509 1509 1508 1508 1508 1509 1510 1513 1516 1520 1516 1515 1517 1520 1522 1524 1526 1528 1530 1531 1532 1533 1534 1535 1536 1537 1537 1538 1538 1539 1539 1540 1540 1541 1541 1541 1542 1542 1542 1542 1542
1498 1500 1503 1504 1512 1520 1517 1509 1508 1506 1506 1506 1507 1509 1510 1511 1512 1513 1513 1515 1517 1520 1522 1524 1526 1528 1529 1531 1532 1533 1534 1535 1536 1537 1537 1538 1538 1539 1539 1540 1540 1541 1541 1541 1542 1542 1542 1542 1542
1498 1500 1503 1505 1512 1514 1511 1506 1505 1505 1505 1505 1507 1508 1510 1511 1512 1513 1514 1515 1518 1520 1522 1524 1526 1528 1529 1530 1532 1533 1534 1535 1536 1536 1537 1538 1538 1539 1539 1540 1540 1540 1541 1541 1541 1542 1542 1542 1542
1498 1500 1502 1508 1508 1506 1504 1503 1502 1504 1505 1505 1506 1509 1510 1512 1512 1513 1514 1516 1518 1520 1522 1524 1525 1527 1529 1530 1531 1532 1533 1534 1535 1536 1537 1537 1538 1538 1539 1539 1539 1540 1540 1540 1541 1541 1541 1542 1542
1497 1499 1504 1508 1505 1503 1501 1501 1501 1502 1504 1505 1506 1508 1509 1511 1511 1513 1514 1516 1518 1519 1521 1523 1525 1526 1528 1529 1530 1531 1532 1533 1534 1535 1536 1537 1537 1538 1538 1538 1539 1539 1539 1540 1540 1540 1540 1541 1541
1497 1498 1506 1508 1504 1501 1500 1500 1501 1502 1503 1504 1505 1507 1509 1510 1511 1513 1515 1516 1518 1519 1521 1523 1524 1526 1527 1528 1529 1530 1531 1533 1534 1534 1535 1536 1536 1537 1537 1537 1538 1538 1538 1538 1539 1539 1539 1539 1540
1497 1500 1503 1504 1504 1502 1500 1500 1500 1502 1503 1504 1505 1507 1508 1510 1511 1513 1514 1516 1518 1519 1521 1522 1524 1525 1527 1528 1529 1530 1531 1532 1533 1534 1534 1535 1535 1536 1536 1536 1537 1537 1537 1537 1537 1538 1538 1538 1538
1495 1500 1503 1504 1503 1502 1500 1499 1500 1501 1502 1504 1505 1506 1507 1508 1510 1512 1514 1516 1517 1519 1520 1521 1523 1524 1526 1527 1529 1529 1530 1531 1532 1533 1533 1534 1534 1535 1535 1535 1535 1535 1536 1536 1536 1536 1536 1536 1536
1494 1502 1503 1502 1500 1499 1498 1499 1500 1501 1501 1503 1504 1505 1506 1507 1509 1511 1513 1515 1517 1518 1520 1521 1522 1524 1525 1527 1528 1529 1530 1530 1531 1532 1532 1533 1533 1533 1534 1534 1534 1534 1534 1534 1534 1534 1534 1534 1535
1495 1501 1499 1497 1496 1496 1497 1498 1499 1500 1501 1502 1503 1504 1505 1507 1509 1511 1512 1514 1515 1517 1519 1520 1521 1523 1524 1526 1527 1528 1529 1530 1530 1531 1531 1532 1532 1532 1532 1532 1532 1532 1532 1532 1532 1532 1532 1532 1532
1495 1498 1496 1495 1495 1495 1496 1498 1499 1499 1502 1501 1501 1502 1505 1507 1509 1511 1512 1514 1515 1517 1518 1520 1521 1522 1524 1525 1526 1527 1528 1528 1529 1529 1530 1530 1531 1531 1531 1531 1531 1531 1531 1530 1530 1530 1530 1530 1530
1496 1496 1496 1496 1495 1495 1496 1497 1498 1499 1499 1499 1500 1502 1504 1506 1509 1511 1512 1513 1515 1516 1517 1519 1520 1522 1523 1524 1525 1526 1526 1527 1527 1528 1528 1528 1529 1529 1529 1529 1529 1528 1528 1528 1528 1528 1528 1527 1527
1496 1497 1497 1496 1496 1496 1496 1497 1498 1499 1499 1499 1500 1502 1504 1506 1509 1511 1512 1514 1515 1516 1517 1517 1518 1520 1522 1523 1524 1525 1525 1526 1526 1526 1527 1527 1527 1527 1527 1527 1527 1526 1526 1526 1525 1525 1525 1525 1524
1497 1497 1497 1497 1496 1496 1497 1497 1499 1499 1499 1500 1500 1502 1505 1507 1508 1510 1512 1513 1515 1516 1517 1518 1519 1520 1521 1522 1523 1523 1524 1524 1524 1525 1525 1525 1525 1525 1525 1525 1524 1524 1524 1523 1523 1523 1522 1522 1522
1497 1499 1498 1498 1497 1497 1498 1501 1501 1500 1500 1501 1502 1503 1505 1507 1509 1510 1512 1513 1515 1516 1517 1518 1519 1520 1520 1521 1521 1522 1522 1522 1523 1522 1523 1523 1523 1523 1523 1522 1522 1522 1521 1521 1520 1520 1520 1519 1519
1499 1503 1505 1501 1499 1499 1502 1505 1502 1501 1501 1502 1503 1504 1505 1507 1509 1510 1512 1513 1514 1516 1517 1518 1519 1519 1520 1520 1520 1520 1521 1521 1521 1520 1521 1520 1521 1520 1520 1520 1520 1519 1519 1518 1518 1517 1517 1516 1516
1505 1508 1507 1504 1500 1500 1502 1505 1502 1501 1502 1502 1503 1505 1506 1507 1509 1511 1512 1513 1514 1515 1517 1517 1517 1518 1519 1519 1519 1519 1519 1519 1519 1519 1519 1519 1518 1518 1518 1518 1517 1517 1516 1516 1515 1514 1514 1513 1512
1509 1509 1508 1507 1503 1502 1504 1505 1503 1502 1502 1503 1503 1505 1506 1507 1508 1510 1512 1513 1514 1515 1516 1516 1517 1518 1518 1518 1518 1518 1518 1518 1518 1518 1518 1518 1517 1517 1516 1516 1515 1514 1514 1513 1512 1512 1511 1511 1510
1507 1509 1510 1508 1505 1505 1506 1505 1503 1502 1502 1503 1503 1504 1505 1506 1508 1510 1511 1513 1514 1515 1515 1515 1516 1516 1516 1517 1517 1517 1517 1517 1517 1516 1516 1516 1516 1515 1514 1513 1513 1512 1511 1511 1510 1509 1508 1508 1507
1507 1510 1511 1508 1506 1507 1507 1506 1503 1502 1502 1502 1502 1503 1504 1505 1507 1509 1511 1512 1513 1514 1514 1515 1515 1516 1515 1516 1516 1516 1516 1516 1516 1515 1515 1514 1514 1513 1512 1511 1511 1510 1509 1508 1507 1506 1506 1505 1505
1510 1511 1511 1511 1509 1509 1508 1507 1504 1502 1501 1501 1501 1502 1503 1504 1506 1508 1509 1511 1512 1513 1514 1514 1515 1515 1515 1515 1515 1515 1515 1515 1515 1515 1514 1513 1513 1512 1511 1510 1509 1508 1507 1506 1505 1504 1503 1503 1502
1513 1511 1510 1511 1514 1519 1516 1518 1507 1504 1502 1501 1500 1500 1501 1503 1504 1506 1508 1509 1510 1512 1512 1513 1513 1513 1514 1514 1514 1514 1514 1514 1513 1513 1512 1511 1511 1510 1509 1508 1507 1506 1505 1504 1503 1502 1502 1501 1500
1513 1512 1513 1514 1517 1521 1521 1522 1514 1506 1502 1500 1499 1499 1500 1501 1503 1504 1506 1508 1509 1510 1511 1512 1512 1512 1512 1512 1512 1512 1512 1511 1511 1510 1510 1509 1508 1507 1507 1506 1505 1504 1503 1502 1501 1500 1499 1498 1498
1513 1514 1516 1520 1522 1523 1521 1523 1516 1509 1502 1499 1498 1498 1499 1500 1501 1503 1505 1506 1507 1508 1509 1510 1510 1510 1510 1510 1510 1510 1510 1509 1508 1508 1507 1506 1506 1505 1504 1503 1502 1501 1500 1499 1498 1497 1497 1496 1495
1516 1521 1529 1527 1532 1526 1524 1523 1516 1502 1499 1498 1497 1497 1498 1498 1500 1501 1502 1504 1505 1506 1507 1508 1508 1508 1508 1509 1508 1508 1507 1506 1506 1505 1505 1504 1503 1502 1502 1501 1500 1498 1497 1496 1495 1494 1493 1493 1492
1519 1521 1530 1530 1531 1530 1525 1523 1509 1500 1498 1497 1497 1497 1497 1498 1498 1499 1501 1502 1503 1504 1505 1505 1505 1506 1506 1506 1506 1506 1505 1504 1504 1503 1502 1501 1500 1499 1499 1498 1497 1496 1494 1493 1492 1491 1490 1489 1488
1520 1525 1526 1533 1535 1533 1525 1519 1506 1498 1497 1497 1496 1496 1497 1498 1498 1499 1500 1500 1501 1502 1503 1503 1503 1503 1503 1503 1503 1503 1502 1502 1501 1500 1499 1498 1497 1497 1496 1495 1494 1492 1491 1490 1489 1488 1487 1486 1485
1521 1525 1531 1532 1529 1527 1522 1519 1513 1501 1499 1497 1497 1497 1497 1498 1498 1499 1499 1500 1500 1501 1501 1501 1501 1501 1501 1501 1500 1500 1499 1499 1498 1497 1496 1495 1494 1494 1493 1491 1490 1489 1488 1487 1485 1484 1483 1482 1481
1523 1525 1529 1535 1534 1533 1528 1518 1504 1501 1499 1498 1497 1497 1497 1497 1498 1498 1498 1499 1499 1499 1499 1499 1498 1498 1498 1498 1497 1497 1496 1495 1494 1493 1492 1491 1491 1490 1489 1488 1487 1485 1484 1483 1482 1481 1479 1478 1477
1521 1522 1527 1530 1532 1537 1538 1522 1500 1499 1498 1497 1497 1497 1497 1497 1497 1497 1497 1497 1496 1496 1496 1496 1495 1495 1494 1494 1494 1493 1493 1492 1491 1490 1489 1488 1487 1486 1485 1484 1483 1481 1480 1479 1478 1477 1476 1474 1473